Погода в Таре

Погода в Таре : погода сейчас, прогноз погоды и архив. Всё, что Вы хотите узнать о погоде в Таре!

Хотите узнать прогноз погоды в Таре? Тогда Вам сюда: Погода в Таре

Поиск расширенной информации на нашем сайте:

Другие новости

Новости СМИ2

Главная страница сайта

Новости сайта

03.07.2017

Напоминаем, что на нашем специализированном сайте Метеоцентр.Азия вы можете получить высокодетализированные автоматические прогнозы погоды по пунктам России, СНГ и мира в авиационном формате (включающие направление и скорость ветра, видимость, явления погоды, количество и форму облачности, нижнюю и верхнюю границу облачности).

Рекомендуем: планировка таунхаусов

Погода в Таре - сегодня

Время (UTC), дата Ветер
(°,м/с) 
Видим.   Явления Облачность Т
(°С)
Тd
(°С)
f(%) Тe
(°С)
Pmin
(гПа)
dP
(гПа)
Po
(мм)
O2
(г/м3)
Тmin Tmax R s Состояние
почвы
21 15.10.18 050 (СВ) 10 км    ясно 
-3.5 -4.6 92 -3  1022.3  -0.4  760  311           
00 16.10.18 050 (СВ) 10 км    3/0 верхняя 
[Ci fib]
-3.7 -5 91 -3  1022.4  0.1  760  311           
06 16.10.18 090 (В) 20000 м    1/1 300 м 
[Cu hum]
+2.7 -2.6 68 +1  1022.5  -0.3  760  304           
09 16.10.18 070 (В) 20000 м    1/1 300 м 
[Cu hum]
+5 -6 45 +6  1020.9  -1.5  759  301           
12 16.10.18 040 (СВ) 20000 м    ясно 
+2.6 -6.8 50 +3  1021  759  304           
15 16.10.18 тихо ()   10 км    ясно 
-4.4 -6.8 83 -4  1021.1  0.1  759  311    +5.2       
18 16.10.18 тихо ()   10 км    4/0 верхняя 
[Ci fib]
-6.6 -8.1 89 -7  1020.1  -1.1  758  314           
21 16.10.18 170 (Ю) 10 км    ясно 
-6.2 -7.7 89 -6  1018.8  -1.3  757  313           
00 17.10.18 190 (Ю) 10 км    3/0 верхняя 
[Ci sp]
-5.8 -7.2 90 -7  1018  -0.8  756  312           
03 17.10.18 190 (Ю) 1000 м  дымка [диам. изморози 4 мм]  10/10 100 м 
[St]
-4.3 -5.5 91 -6  1016.8  -1.1  756  310  -6.9         
06 17.10.18 180 (Ю) 20000 м  [диам. изморози 1 мм]  9/3 300 м верхняя 
[St|Ci]
-0.9 -3.6 82 -4  1014.2  -2.4  754  305           
15 17.10.18 170 (Ю) 5{12}  4000 м  слаб. ливневой снег  10/10 300 м кучево-дожд. 
[Cb cap]
+0.8 -1.4 85 -2  1005.5  -2.8  747  300    +3  0.4     
03 18.10.18 150 (ЮВ) 4{10}  10 км  слаб. ливневой снег  10/10 300 м кучево-дожд. 
[Cb cap]
+0.5 -0.1 96 -2  998.7  -0.7  742  298  +0.2    равномерный
мокрый или
старый снег
100% 
06 18.10.18 140 (ЮВ) 10 км  слаб. ливневой дождь  10/10 300 м кучево-дожд. 
[Cb cap]
+1.1 +0.1 93 -1  997.7  742  298           
09 18.10.18 130 (ЮВ) 10 км  слаб. морось{ливн. осадки}  10/10 200 м 
[St]
+1.6 +0.4 92 998  0.4  742  297           
12 18.10.18 130 (ЮВ) 4000 м  слаб. морось{ливн. осадки}  10/10 200 м 
[St]
+2 +0.8 92 +1  999.6  1.5  743  297           
15 18.10.18 130 (ЮВ) 10 км  {морось}  10/10 200 м 
[St]
+2.2 +1 92 +2  1001.7  744  297    +2.3     
18 18.10.18 120 (ЮВ) 10 км  {морось}  10/10 600 м 
[Sc]
+1.9 +0.6 91 +1  1002.8  1.1  745  298           
21 18.10.18 120 (ЮВ) 10 км    3/0 средняя 
[Ac lent]
+1.2 -0.1 91 +2  1004.4  1.5  746  299           
00 19.10.18 140 (ЮВ) 10 км    8/8 600 м 
[Sc]
+1.5 +0.2 91 +1  1005.9  1.5  748  300           
03 19.10.18 130 (ЮВ) 20000 м    8/8 600 м 
[Sc]
+0.1 -1.3 90 -1  1007.5  1.5  749  302  -0.2      мокрый или
старый снег
50-90% 
06 19.10.18 160 (Ю) 20000 м    10/10 300 м 
[Frnb]
+1.2 -1 85 1008.5  1.1  750  301           
09 19.10.18 160 (Ю) 20000 м    10/10 300 м кучево-дожд. 
[Cb cap]
+2 -1 80 +3  1009.4  0.9  750  300           
12 19.10.18 180 (Ю) 20000 м    10/10 600 м кучево-дожд. 
[Cb cap]
+1.4 -1.1 83 +2  1010.6  1.2  751  301           
15 19.10.18 тихо ()   10 км    10/10 600 м 
[Sc]
+0.7 -1 88 +1  1011.9  1.3  752  302    +2       
Время (UTC), дата Ветер
(°,м/с) 
Видим.   Явления Облачность Т
(°С)
Тd
(°С)
f(%) Тe
(°С)
Pmin
(гПа)
dP
(гПа)
Po
(мм)
O2
(г/м3)
Тmin Tmax R s Состояние
почвы

Для получения пояснительной информации подведите курсор к названию столбца.

ПОГОДА в Таре - архив

Всё, что Вы хотите узнать о погоде в Таре - удобно и подробно!

Выберите нужную дату (начиная с 1 января 2015* года) и нажмите кнопку "Найти".
Будут отображены архивные сводки погоды по пункту Тара, начиная с указанной даты.


Отображать данные в формате CSV (для использования в таблицах Excel)


Внимание! Наш архив погоды предназначен исключительно для личного некоммерческого использования в познавательных целях. Если Вам необходимы официальные справки о состоянии погоды (для производственных, юридических, коммерческих и т.п. целей), обращайтесь в органы Росгидромета.

*Примечание: данная дата относится к архиву по метеостанциям СССР (Россия, СНГ, Балтия).
Архив по метеостанциям Зарубежной Европы и Азии (кроме Китая) хранится 10 дней, по другим регионам земного шара (Китай, Африка, Америка, Австралия, Океания) - 1 день.

Тара - район местоположения метеостанции


Название, широта, долгота, высота метеостанции:
Тара 56.9°ш. 74.4°д. 73 м над ур. моря [Российская Федерация]

Дополнительная информация

В oтличие oт бoльшинства пoгoдных сайтoв мы публикуем пoдрoбную метеoинфoрмацию в детальнoм прoфессиoнальнoм фoрмате.

Характеристики температуры и влажнoсти вoздуха измеряются на высoте 2 м в тени вдали oт зданий и деревьев.
Скoрoсть ветра измеряется на высoте 10 м (на урoвне рoста челoвека скoрoсть ветра ниже в 1.5-2 раза). Если метеoстанция нахoдится в гoрoде или в лесу, тo скoрoсть ветра занижена на 2-4 м/с пo сравнению с oткрытым местoм. Скoрoсть ветра над акватoриями крупных рек и oзёр, а также на вершинах хoлмoв на 2-5 м/с выше, чем в oбычных услoвиях.
Атмoсфернoе давление в разных тoчках местнoсти мoжет значительнo oтличаться oт давления на метеoстанции, в зависимoсти oт услoвий рельефа (при пoдъёме на 10 м давление пoнижается примернo на 1 мм рт.ст.).